DW4207 Weather Reports


Display with metric or nautical units.
time (UTC)temp
F
wind
direction
speed
MPH
gust
MPH
rain 1hr
in
rain 24hr
in
rain mn
in
humidity
%
barometer
mb
20260506211003 56 234 4.0 10.0 0.00 0.54 0.06 57 1013.9
20260506210003 56 339 2.0 8.0 0.00 0.54 0.06 57 1013.7
20260506205003 57 262 3.0 10.0 0.00 0.54 0.06 58 1013.7
20260506204003 57 282 3.0 7.0 0.00 0.55 0.06 58 1013.8
20260506203003 55 235 3.0 8.0 0.00 0.55 0.06 59 1013.8
20260506202003 56 273 3.0 9.0 0.00 0.56 0.06 55 1013.8
20260506201003 56 240 3.0 8.0 0.00 0.57 0.06 58 1013.8
20260506200003 56 240 3.0 8.0 0.00 0.58 0.06 58 1013.8
20260506195003 56 234 3.0 9.0 0.00 0.58 0.06 64 1014.0
20260506194003 56 259 2.0 9.0 0.00 0.58 0.06 61 1014.0
20260506193003 56 247 3.0 9.0 0.00 0.58 0.06 61 1014.0
20260506192003 56 289 2.0 7.0 0.00 0.58 0.06 59 1014.0
20260506191003 56 264 3.0 7.0 0.00 0.58 0.06 57 1014.0
20260506190004 56 236 3.0 8.0 0.00 0.58 0.06 65 1014.0
20260506185003 56 256 3.0 9.0 0.00 0.58 0.06 63 1014.0
20260506184003 56 234 3.0 8.0 0.00 0.59 0.06 65 1014.0
20260506183024 56 293 2.0 5.0 0.00 0.60 0.06 63 1014.0
20260506182003 55 240 2.0 6.0 0.00 0.61 0.06 63 1013.9
20260506181003 55 266 2.0 5.0 0.00 0.62 0.06 63 1014.0
20260506180004 55 236 3.0 5.0 0.00 0.63 0.06 62 1014.1
20260506175003 55 238 2.0 7.0 0.00 0.66 0.06 59 1014.2
20260506174003 54 259 1.0 4.0 0.00 0.68 0.06 61 1014.2
20260506173003 54 211 2.0 4.0 0.00 0.70 0.06 59 1014.2
20260506172024 54 256 1.0 4.0 0.00 0.73 0.06 60 1014.2
20260506171003 54 230 1.0 4.0 0.00 0.74 0.06 58 1014.0
20260506170003 54 260 1.0 4.0 0.00 0.76 0.06 58 1014.1
20260506165003 54 275 1.0 4.0 0.00 0.77 0.06 61 1014.2
20260506164003 54 337 2.0 5.0 0.00 0.78 0.06 57 1014.2
20260506163003 54 338 1.0 4.0 0.00 0.78 0.06 59 1014.0
20260506162003 54 359 2.0 6.0 0.00 0.78 0.06 57 1013.9
20260506161024 55 353 1.0 7.0 0.00 0.78 0.06 58 1013.7
20260506160003 54 140 2.0 7.0 0.00 0.78 0.06 64 1013.8
20260506155003 55 240 2.0 5.0 0.00 0.80 0.06 56 1014.1
20260506154003 54 241 1.0 4.0 0.00 0.80 0.06 60 1013.8
20260506153003 54 255 1.0 5.0 0.00 0.80 0.06 62 1013.8
20260506152003 54 322 1.0 3.0 0.00 0.82 0.06 66 1013.9
20260506151003 54 272 2.0 4.0 0.00 0.85 0.06 64 1013.6
20260506150003 53 252 3.0 8.0 0.00 0.87 0.06 65 1013.7
20260506145003 55 339 2.0 7.0 0.00 0.89 0.06 63 1013.9
20260506144003 54 306 1.0 7.0 0.00 0.91 0.06 64 1013.7
20260506143024 54 336 2.0 7.0 0.00 0.92 0.06 68 1013.5
20260506142003 54 288 2.0 4.0 0.00 0.92 0.06 68 1013.6
20260506141003 53 310 2.0 6.0 0.00 0.92 0.06 69 1013.5
20260506140003 53 298 2.0 4.0 0.00 0.92 0.06 70 1013.3
20260506135003 53 250 1.0 5.0 0.00 0.92 0.06 73 1013.5
20260506134003 52 256 1.0 4.0 0.00 0.92 0.06 75 1013.3
20260506133003 52 242 1.0 3.0 0.00 0.92 0.06 78 1013.0
20260506132003 51 256 1.0 4.0 0.00 0.92 0.06 79 1013.2
20260506131003 50 244 1.0 3.0 0.00 0.92 0.06 81 1013.1
20260506130003 50 237 1.0 4.0 0.00 0.92 0.06 83 1013.2
20260506125003 49 248 1.0 4.0 0.00 0.92 0.06 84 1013.1
20260506124024 48 229 1.0 3.0 0.00 0.92 0.06 87 1013.0
20260506123003 48 0 0.0 0.0 0.00 0.92 0.06 92 1012.8
20260506122003 47 216 1.0 3.0 0.00 0.92 0.06 92 1012.9
20260506121003 46 0 0.0 0.0 0.00 0.92 0.06 93 1012.6
20260506120003 46 0 0.0 0.0 0.00 0.92 0.06 93 1012.3
20260506115003 46 0 0.0 0.0 0.00 0.92 0.06 93 1012.2
20260506114003 45 0 0.0 0.0 0.00 0.92 0.06 93 1011.7
20260506113003 45 0 0.0 0.0 0.00 0.92 0.06 93 1012.1
20260506112003 45 0 0.0 0.0 0.00 0.92 0.06 93 1012.0
20260506111003 44 0 0.0 0.0 0.00 0.92 0.06 93 1011.4
20260506110003 44 0 0.0 0.0 0.00 0.92 0.06 93 1011.4
20260506105003 44 0 0.0 0.0 0.00 0.92 0.06 92 1011.1
20260506104004 44 0 0.0 0.0 0.00 0.92 0.06 92 1010.8
20260506103004 45 0 0.0 0.0 0.00 0.92 0.06 92 1010.4
20260506102025 45 0 0.0 0.0 0.00 0.92 0.06 92 1010.6
20260506101004 45 0 0.0 0.0 0.00 0.92 0.06 92 1010.7
20260506100004 46 0 0.0 0.0 0.00 0.92 0.06 92 1010.8
20260506095004 46 0 0.0 0.0 0.00 0.92 0.06 92 1011.2
20260506094004 45 0 0.0 0.0 0.00 0.92 0.06 92 1010.8
20260506093025 45 0 0.0 0.0 0.00 0.92 0.06 92 1010.1
20260506092004 45 0 0.0 0.0 0.00 0.92 0.06 92 1010.3
20260506091004 45 0 0.0 0.0 0.00 0.92 0.06 92 1010.3
20260506090004 45 0 0.0 0.0 0.00 0.92 0.06 92 1010.1
20260506085004 45 0 0.0 0.0 0.00 0.92 0.06 92 1010.1
20260506084004 45 0 0.0 0.0 0.00 0.92 0.06 91 1009.8
20260506083004 45 0 0.0 0.0 0.01 0.92 0.06 91 1010.1
20260506082025 46 0 0.0 0.0 0.01 0.92 0.06 92 1009.9
20260506081005 45 0 0.0 0.0 0.01 0.97 0.06 91 1010.4
20260506073004 46 0 0.0 0.0 0.00 1.17 0.05 91 1009.4
20260506072004 45 0 0.0 0.0 0.00 1.21 0.05 91 1009.8
20260506071004 45 0 0.0 0.0 0.00 1.25 0.05 91 1009.8
20260506062004 46 17 0.0 2.0 0.01 1.37 0.05 91 1009.9
20260506061004 45 13 1.0 3.0 0.01 1.40 0.05 91 1009.4
20260506051004 46 351 1.0 4.0 0.03 1.58 0.04 91 1010.6
20260506045004 46 322 0.0 2.0 0.03 1.74 0.03 91 1011.1
20260506044004 46 348 1.0 3.0 0.04 1.74 0.03 90 1010.8
20260506043004 46 3 1.0 3.0 0.04 1.72 0.01 90 1010.2
20260506042004 46 359 1.0 4.0 0.07 1.72 0.01 90 1009.9
20260506041025 46 22 2.0 5.0 0.10 1.72 0.01 90 1009.7
20260506040004 46 20 2.0 5.0 0.10 1.71 0.00 90 1009.5
20260506035004 46 23 2.0 4.0 0.10 1.71 1.71 90 1009.6
20260506034004 46 27 2.0 4.0 0.09 1.70 1.70 91 1009.8
20260506033005 47 40 1.0 4.0 0.07 1.68 1.68 91 1010.1
20260506032004 47 24 1.0 4.0 0.06 1.65 1.65 91 1010.2
20260506031004 47 6 1.0 5.0 0.05 1.62 1.62 91 1010.3
20260506030004 47 17 2.0 9.0 0.05 1.61 1.61 91 1009.7
20260506025004 47 357 1.0 4.0 0.05 1.61 1.61 92 1009.2
20260506024025 47 18 1.0 3.0 0.05 1.61 1.61 92 1008.7
20260506023004 47 19 1.0 2.0 0.05 1.61 1.61 92 1009.0
20260506022004 47 26 1.0 3.0 0.03 1.59 1.59 91 1009.0
20260506021004 46 302 0.0 2.0 0.02 1.57 1.57 91 1009.8
20260506020004 46 337 1.0 4.0 0.01 1.56 1.56 91 1009.3
20260506015004 46 354 0.0 3.0 0.02 1.56 1.56 91 1008.6
20260506014025 46 8 0.0 2.0 0.03 1.56 1.56 91 1008.4
20260506013004 46 359 1.0 4.0 0.06 1.56 1.56 91 1008.7
20260506012025 46 357 1.0 3.0 0.09 1.56 1.56 91 1008.4
20260506011004 46 355 1.0 7.0 0.10 1.55 1.55 91 1008.2
20260506010004 46 5 0.0 2.0 0.12 1.55 1.55 91 1008.5
20260506005004 46 30 1.0 3.0 0.12 1.54 1.54 91 1008.5
20260506004025 46 14 1.0 4.0 0.12 1.53 1.53 91 1008.5
20260506003004 46 355 1.0 4.0 0.12 1.50 1.50 91 1008.8
20260506002004 46 352 1.0 4.0 0.12 1.47 1.47 91 1008.5
20260506001004 46 357 2.0 4.0 0.11 1.45 1.45 91 1008.4
20260506000004 46 1 1.0 3.0 0.10 1.43 1.43 90 1008.5
20260505235004 46 33 0.0 3.0 0.10 1.42 1.42 90 1008.6
20260505234025 46 21 1.0 3.0 0.10 1.41 1.41 90 1008.6
20260505233004 46 33 1.0 3.0 0.07 1.38 1.38 90 1008.9
20260505232004 46 23 1.0 3.0 0.05 1.35 1.35 90 1008.7
20260505231004 47 13 1.0 4.0 0.05 1.34 1.34 90 1008.8
20260505230004 46 354 1.0 5.0 0.07 1.33 1.33 90 1008.9
20260505225004 46 1 2.0 5.0 0.07 1.32 1.32 90 1009.0
20260505224004 46 359 4.0 9.0 0.07 1.31 1.31 90 1008.9
20260505223004 46 350 4.0 10.0 0.08 1.31 1.31 90 1008.6
20260505222004 46 353 4.0 10.0 0.07 1.30 1.30 90 1009.2
20260505221004 47 355 4.0 8.0 0.06 1.29 1.29 90 1009.3
20260505220004 47 358 3.0 5.0 0.03 1.26 1.26 90 1009.4
20260505215025 47 354 3.0 8.0 0.02 1.25 1.25 90 1009.3
20260505214004 47 355 3.0 13.0 0.02 1.24 1.24 90 1009.1
20260505213004 47 351 5.0 13.0 0.01 1.23 1.23 90 1009.0
20260505212004 48 339 4.0 11.0 0.02 1.23 1.23 90 1009.0